User: anonymous   Login
Location: Terra Rouge Observatory
(46.0000°N, 62.7500°W)
Time: 23:03:29
(UTC-03:00)
Language:

NOSS 3-1 (A) - Orbit

View from above orbital plane
View from above orbital plane
View from above satellite
View from above satellite

Ground track
Ground track

The orbit data is extracted from the following two-line orbital elements,

1 26905U 01040A   15081.77502762 0.00000000  00000-0  00000-0 0    01
2 26905  63.4260 319.3671 0295000 357.4015   2.5985 13.40714601    02
Epoch (UTC): 22 March 2015 18:36:02
Eccentricity: 0.0295000
inclination: 63.4260°
perigee height: 886 km
apogee height: 1327 km
right ascension of ascending node: 319.3671°
argument of perigee: 357.4015°
revolutions per day: 13.40714601
mean anomaly at epoch: 2.5985°
orbit number at epoch: 0

The dashed part of the orbit path shows where the satellite is in the earth's shadow,  

DLR